Lapse_Rate
5.4 5.1 4.7 5.4 5.3 5.4 5.3 5.3 5.5 5.6 6.3 6.0 5.9 5.8 5.9 6.3 5.7 6.1 5.8 5.9 5.4 5.5 5.7 5.7 5.8 5.9 6.2 6.6 6.3 6.2 5.8 5.5 5.6 5.8 5.9 5.8 6.1 6.0 6.3 6.4 6.4 6.5 6.7 6.7
5.5 4.7 5.1 5.6 5.5 5.4 5.3 5.3 5.2 5.7 5.9 5.8 5.6 5.4 5.6 5.7 5.7 5.5 5.8 5.8 5.9 5.5 5.4 6.0 6.1 6.0 6.2 6.5 6.5 6.4 6.4 6.2 6.2 6.2 6.2 5.9 5.7 5.8 5.8 6.1 6.6 6.8 6.6 6.4
5.5 5.0 5.2 5.2 5.1 5.2 5.1 5.1 5.3 5.4 5.7 5.7 5.6 5.1 5.4 5.5 5.9 5.9 6.0 6.1 5.9 5.8 5.7 5.7 6.2 6.4 6.2 6.5 6.8 6.9 6.8 6.7 6.3 6.5 6.4 6.6 6.4 6.5 6.5 6.8 6.8 6.6 6.5 6.4
5.9 5.7 5.2 5.6 5.2 5.2 5.3 5.4 5.5 5.6 5.6 5.5 5.5 4.6 5.3 5.8 5.6 5.6 5.8 6.2 6.7 6.2 6.0 5.5 6.1 6.6 6.5 6.6 6.8 7.0 7.2 6.9 6.8 6.5 6.6 6.8 6.9 6.9 7.0 6.6 6.4 6.6 6.7 6.7
5.4 6.0 5.3 5.4 5.2 5.6 5.3 5.9 5.8 5.8 5.5 5.5 5.2 4.5 4.3 5.5 5.4 5.9 6.4 6.8 7.1 6.9 6.2 5.9 6.0 6.5 6.7 6.2 6.6 6.9 7.0 6.7 6.7 7.0 6.8 6.8 6.8 7.0 6.9 6.8 6.7 6.6 6.6 6.6
6.1 6.4 6.3 5.8 6.4 6.5 6.1 6.3 5.9 5.7 5.5 5.0 5.0 4.7 4.2 4.8 5.7 6.5 6.9 6.9 6.6 6.7 6.6 6.4 6.1 5.9 6.1 6.0 5.9 6.4 6.9 7.2 7.2 7.1 7.3 7.2 7.0 7.0 7.1 7.1 7.0 6.8 6.7 6.7
5.8 5.8 6.4 6.2 6.1 6.2 6.3 6.5 6.0 6.1 5.8 4.7 5.3 4.9 4.0 4.7 5.8 6.8 7.0 6.9 7.0 6.8 6.7 6.5 6.4 6.2 6.1 6.2 6.0 6.1 6.6 7.0 7.1 7.1 7.1 7.3 7.2 7.0 7.0 7.0 6.9 6.9 6.8 6.8
5.7 6.0 6.1 5.8 5.7 5.7 5.5 6.2 6.0 5.6 4.7 4.8 5.2 4.6 4.6 5.2 6.4 7.0 6.8 7.0 6.9 6.4 6.3 6.4 6.6 6.4 6.1 6.2 6.2 6.1 6.3 6.7 6.7 6.8 7.1 6.9 6.9 6.8 6.8 6.9 6.8 6.7 6.7 6.8
6.1 6.2 6.5 6.2 6.1 6.5 6.1 6.5 6.8 6.4 5.6 5.2 5.7 5.2 5.2 5.4 6.4 6.8 6.8 6.8 7.0 6.5 6.2 6.3 6.5 6.6 6.3 6.0 6.2 6.3 6.3 6.3 6.1 6.1 6.2 6.4 6.5 6.4 6.6 6.5 6.4 6.5 6.7 6.9
6.1 6.5 6.1 5.8 6.1 6.0 6.4 6.9 6.7 6.6 4.6 4.2 5.0 5.2 5.7 6.0 7.0 6.9 6.8 6.9 6.8 6.6 6.7 6.7 6.8 6.7 6.4 6.2 6.2 6.4 6.5 6.5 6.5 6.4 6.3 6.5 6.8 6.8 6.7 6.7 6.7 6.7 6.7 6.7
6.3 6.4 6.1 6.3 6.2 5.8 5.9 6.2 6.5 6.8 6.4 4.9 4.1 5.5 6.3 6.7 7.0 7.1 7.1 6.7 6.6 6.5 6.6 7.0 6.8 6.5 6.4 6.4 6.4 6.5 6.5 6.4 6.4 6.3 6.2 6.2 6.2 6.3 6.6 6.6 6.8 6.8 6.7 6.7
6.7 6.7 6.3 6.2 6.3 6.4 6.2 6.2 6.4 6.4 5.9 5.9 5.4 6.2 6.9 6.6 6.5 6.6 6.6 6.6 6.6 6.7 6.6 6.5 6.4 6.5 6.5 6.5 6.5 6.3 6.3 6.2 6.2 6.2 6.1 6.0 6.0 6.1 6.2 6.6 6.9 6.8 6.7 6.5
6.5 6.2 6.1 6.3 6.1 6.1 6.1 6.2 6.5 6.8 7.0 6.5 5.5 5.9 6.7 6.6 6.7 6.8 6.7 6.5 6.2 6.3 6.6 6.7 6.6 6.4 6.4 6.4 6.3 6.3 6.3 6.4 6.4 6.6 6.5 6.1 6.0 5.9 6.1 6.4 6.8 6.8 6.8 6.9
7.0 6.3 6.2 6.4 6.4 5.6 5.5 5.8 6.1 6.5 6.7 6.3 6.0 6.1 6.7 6.6 6.6 7.2 7.0 6.6 6.2 6.1 6.2 6.4 6.4 6.5 6.5 6.4 6.4 6.4 6.5 6.4 6.4 6.5 6.3 6.3 6.3 6.2 6.1 6.2 6.5 6.8 7.1 7.3
6.7 6.2 6.1 6.5 6.2 6.5 5.9 5.9 6.0 6.2 6.3 6.6 6.1 6.1 6.5 7.1 7.6 7.5 7.2 6.8 6.2 6.2 6.3 6.1 6.1 6.3 6.4 6.5 6.5 6.6 6.6 6.6 6.6 6.5 6.4 6.4 6.5 6.6 6.8 6.9 6.9 6.8 7.0 7.1
6.7 6.4 6.2 6.3 6.5 6.3 6.1 6.2 6.1 6.4 6.5 6.5 6.7 6.9 7.3 7.3 7.2 6.7 6.7 7.1 7.2 6.5 6.1 6.1 6.0 6.0 6.0 6.1 6.4 6.5 6.6 6.7 6.7 6.6 6.5 6.4 6.3 6.5 6.6 6.8 6.9 7.3 7.3 7.1
6.8 6.4 6.3 6.1 6.2 6.1 5.8 5.9 6.3 6.4 6.5 6.8 6.3 6.8 7.1 7.7 7.2 6.9 7.0 7.1 7.5 7.2 6.7 6.4 6.3 6.3 6.4 6.2 6.2 6.4 6.5 6.6 6.6 6.7 6.7 6.7 6.7 6.7 6.8 7.0 7.2 7.3 7.4 7.4
5.2 6.3 6.3 6.2 6.4 6.2 6.2 6.7 6.7 7.0 7.7 7.7 7.0 7.2 7.4 7.6 7.5 7.3 7.1 7.1 7.0 6.9 7.0 7.1 7.0 6.9 6.8 6.6 6.5 6.5 6.6 6.6 6.4 6.5 6.6 6.6 6.7 6.8 6.9 7.1 7.2 7.2 7.3 7.3
5.7 6.3 6.3 6.3 6.4 6.3 6.2 6.5 6.6 6.2 6.8 7.0 6.8 6.8 7.0 7.1 6.8 6.9 7.0 6.7 6.5 6.9 6.9 7.0 7.0 7.0 7.1 6.9 6.7 6.4 6.3 6.4 6.4 6.4 6.3 6.5 6.6 6.7 6.8 6.9 7.0 7.1 7.2 7.2
6.1 6.4 6.3 5.7 6.0 6.1 7.0 6.7 7.6 6.8 6.5 7.6 7.4 7.2 6.7 6.4 6.5 7.3 6.7 6.6 6.7 6.7 6.8 6.8 6.9 7.0 6.9 6.7 6.5 6.1 6.0 6.1 6.3 6.4 6.3 6.3 6.4 6.5 6.5 6.5 6.6 6.8 6.8 6.9
6.0 5.8 6.0 5.8 6.3 7.0 6.8 7.1 7.3 6.4 6.5 7.8 7.6 7.4 7.4 7.2 7.2 7.1 6.9 6.6 6.5 6.7 6.7 6.7 6.8 6.7 6.6 6.5 6.4 6.5 6.6 6.6 6.6 6.7 6.5 6.5 6.5 6.5 6.6 6.6 6.7 6.8 6.9 7.0
5.9 5.8 5.6 5.8 5.9 6.0 6.7 7.0 6.7 7.0 7.6 8.1 7.5 7.6 7.4 7.1 6.9 6.5 6.7 6.5 6.6 6.6 6.6 6.6 6.6 6.4 6.4 6.4 6.5 6.6 6.6 6.6 6.6 6.7 6.6 6.6 6.6 6.7 6.7 6.8 7.0 7.1 7.1 7.1
6.3 6.9 6.4 6.5 6.2 6.3 6.6 6.7 6.8 7.0 7.2 7.2 7.3 7.3 7.2 7.2 7.0 6.7 6.7 6.6 6.6 6.6 6.6 6.5 6.5 6.4 6.5 6.7 6.7 6.8 6.8 6.9 6.9 6.9 6.9 6.9 6.7 6.7 6.8 6.9 6.8 6.8 6.9 7.0
6.3 6.3 6.6 6.4 6.4 6.8 7.1 7.0 6.8 6.8 6.8 6.9 7.1 6.7 6.6 6.7 6.6 6.6 6.5 6.4 6.4 6.4 6.5 6.5 6.5 6.6 6.7 6.7 6.7 6.7 6.7 6.7 6.6 6.7 6.8 6.9 7.0 7.0 6.9 6.9 7.0 7.1 7.2 7.3
6.4 6.2 6.1 6.1 6.5 7.0 7.1 6.8 7.0 6.7 6.6 6.6 6.7 6.6 6.6 6.5 6.5 6.4 6.4 6.4 6.4 6.4 6.4 6.4 6.3 6.4 6.5 6.5 6.5 6.5 6.5 6.4 6.4 6.4 6.5 6.5 6.7 6.8 6.8 6.8 6.8 6.8 6.8 6.9
6.3 6.1 6.0 6.1 6.4 6.6 6.9 7.1 6.8 6.6 6.5 6.4 6.6 6.6 6.6 6.5 6.3 6.3 6.3 6.2 6.2 6.1 6.1 6.2 6.3 6.4 6.3 6.3 6.2 6.2 6.2 6.3 6.3 6.5 6.6 6.6 6.6 6.7 6.6 6.6 6.7 6.9 6.9 6.9
Wind_Speed
5 6 16 15 8 3 3 5 9 4 9 9 10 8 10 11 5 8 9 8 8 13 15 17 17 18 15 12 15 16 13 11 9 6 6 5 9 8 7 16 20 19 19 22
5 14 14 8 8 8 9 5 6 6 2 7 6 15 12 8 9 10 10 9 9 7 10 15 14 17 17 14 16 16 17 15 12 11 7 3 5 5 9 12 14 19 20 21
16 9 11 12 9 12 12 9 5 5 1 1 2 8 7 6 7 9 9 10 10 13 12 15 16 18 17 16 17 18 18 17 16 14 7 4 3 2 3 4 7 15 20 21
15 12 20 14 18 11 14 9 9 3 4 5 4 7 10 10 18 16 15 13 17 14 11 11 19 18 18 18 18 18 18 17 16 17 13 17 11 12 10 10 9 9 19 20
6 16 19 21 24 15 6 9 9 4 2 2 4 4 6 8 9 9 15 21 19 14 14 15 16 20 21 16 17 17 16 17 17 17 17 13 15 10 6 6 8 10 13 19
15 4 16 17 15 14 7 6 5 4 2 8 8 8 5 7 7 11 15 13 14 16 16 15 15 17 17 17 16 15 17 17 18 17 19 18 18 13 10 10 9 9 10 10
18 21 3 9 17 4 7 10 3 7 5 10 13 9 16 7 9 12 11 9 8 8 11 14 13 11 15 17 17 15 17 18 17 18 18 19 18 16 15 14 12 11 10 9
11 11 22 13 18 13 21 17 5 9 6 8 3 8 5 18 23 13 10 9 8 8 6 9 13 14 16 17 18 18 17 18 17 17 20 17 18 12 12 13 11 10 11 12
6 5 15 10 6 15 9 13 10 4 3 3 5 6 8 7 12 7 9 7 8 7 7 8 8 8 11 14 16 17 17 17 16 17 15 17 16 17 15 18 12 12 13 11
8 3 6 7 9 2 13 18 9 3 3 4 5 5 5 6 14 7 5 9 8 5 4 3 2 3 6 8 10 13 17 18 18 18 16 15 17 17 17 13 15 16 13 12
12 7 3 1 8 16 5 14 5 7 4 5 2 6 7 12 8 9 7 5 5 4 3 4 4 3 1 3 3 7 9 13 12 12 14 14 13 15 14 14 12 13 8 11
15 5 6 15 1 5 9 13 17 10 10 4 2 5 6 9 9 9 8 7 5 5 2 2 4 4 4 3 2 4 4 6 6 7 9 10 11 11 12 13 16 12 13 13
12 6 9 5 4 3 16 6 19 3 4 9 5 5 1 3 6 6 10 8 7 5 4 2 1 2 2 3 4 5 5 7 7 6 7 7 10 13 15 17 17 13 13 13
13 6 3 10 16 7 25 24 26 23 9 13 17 10 6 8 8 7 7 7 8 7 6 5 4 3 3 4 4 5 6 6 6 6 6 7 6 7 7 7 7 7 7 9
14 9 13 16 18 19 15 22 19 21 25 15 20 14 10 10 10 10 9 7 6 6 7 7 5 5 5 5 6 5 6 6 5 6 5 6 4 4 3 5 5 4 5 5
12 5 19 19 12 19 19 21 20 19 23 15 19 16 8 7 3 6 8 8 7 6 5 7 6 5 5 5 6 6 7 6 4 4 5 3 1 1 1 1 1 3 3 5
13 9 11 12 15 16 14 25 27 26 22 28 23 25 8 8 12 10 9 8 5 5 5 4 2 1 3 4 6 6 5 3 4 3 2 2 2 2 3 2 3 3 2 3
19 18 4 5 9 11 6 21 25 30 31 29 25 10 17 9 8 8 5 3 3 4 4 5 4 4 4 4 5 3 4 2 3 3 2 3 2 2 2 2 2 2 2 0
23 7 5 6 13 3 3 10 27 21 30 27 28 16 7 6 5 3 3 3 5 5 4 3 3 3 5 6 5 4 4 4 4 2 2 2 3 3 4 3 3 2 2 2
17 14 6 4 6 11 4 7 16 4 16 24 26 20 16 6 5 8 7 6 7 6 4 4 6 5 6 6 5 5 5 4 3 2 2 2 3 3 3 3 2 1 1 2
6 3 13 9 3 6 6 7 22 12 11 7 22 20 16 18 16 7 8 6 5 5 5 6 7 6 5 5 5 6 5 5 5 4 3 2 2 2 2 3 2 2 2 2
6 8 3 4 2 11 6 17 22 3 2 2 4 9 12 10 12 11 9 8 7 7 6 6 6 6 6 6 5 5 6 5 4 3 4 3 1 1 2 4 3 3 4 3
3 6 7 9 6 1 4 4 3 3 3 1 4 6 15 15 7 9 9 8 7 7 6 5 6 7 8 8 7 6 7 6 5 5 5 4 3 2 2 3 3 1 2 3
2 4 3 4 4 3 3 2 5 4 4 4 5 8 8 10 10 11 10 8 8 6 6 4 6 7 7 7 7 6 6 5 6 5 5 4 4 4 4 2 2 1 1 1
4 8 2 1 5 3 4 7 4 7 8 8 10 6 9 14 9 11 9 9 7 7 6 6 6 6 6 6 7 6 6 3 4 3 3 3 3 3 2 2 2 1 1 1
7 6 3 3 7 6 5 11 7 6 6 6 9 10 8 9 11 12 10 8 7 7 5 7 7 7 6 5 6 8 8 6 4 5 4 3 3 3 2 3 3 6 3 3
Wind_Direction
195 179 201 198 196 274 194 186 215 227 235 184 215 229 232 249 191 215 228 229 202 200 209 200 196 194 200 180 182 182 182 200 184 188 189 194 195 194 197 198 196 194 198 200
162 220 204 195 201 200 259 246 236 241 316 170 219 242 238 224 236 222 217 229 235 224 195 205 195 191 194 188 190 186 192 193 202 199 195 186 195 207 206 203 201 196 195 197
203 206 189 202 199 206 225 228 223 195 218 7 31 274 256 241 237 237 234 226 228 218 216 202 197 193 194 191 190 190 194 194 199 207 197 188 170 148 189 201 208 203 195 197
221 203 184 199 213 193 220 179 234 150 149 231 163 271 237 221 238 237 244 235 233 221 213 202 198 197 197 198 193 193 192 193 194 196 205 209 207 205 208 206 208 199 193 195
215 189 185 198 205 198 215 171 194 175 128 51 204 263 273 216 231 240 237 238 235 216 213 211 199 200 198 191 196 196 190 194 197 194 200 203 211 214 201 198 195 203 206 201
228 317 190 200 194 193 150 98 59 40 99 234 193 207 205 215 211 245 243 241 229 223 219 213 206 199 196 196 193 193 193 199 196 199 200 203 208 204 199 197 199 202 205 205
220 219 299 173 183 149 157 153 190 217 207 252 175 205 248 240 243 233 239 239 253 246 229 220 205 193 194 192 195 196 198 203 199 201 206 207 209 209 209 206 206 198 205 208
209 209 196 225 190 180 191 178 163 200 195 218 113 229 237 216 232 243 236 240 262 268 236 225 220 200 191 191 196 197 200 211 204 207 211 209 212 212 215 215 212 211 210 210
200 234 188 213 194 165 181 200 174 95 41 94 214 285 299 245 247 234 250 259 263 262 261 252 227 208 191 191 194 195 200 210 208 212 213 211 213 214 214 217 211 213 214 214
187 254 224 200 168 175 194 184 182 191 176 240 261 251 228 223 242 242 271 245 264 284 321 348 298 220 196 195 194 195 202 206 206 207 210 212 212 214 220 219 218 218 216 206
214 204 179 273 217 173 161 188 203 174 174 189 218 255 221 207 199 166 169 135 114 74 26 341 344 3 295 312 223 209 205 208 209 209 213 215 213 215 214 219 219 218 202 200
214 192 195 213 288 234 208 189 184 186 208 207 155 274 310 166 167 154 154 140 127 117 98 4 0 351 335 329 267 240 232 231 229 214 214 211 211 207 208 212 219 209 204 197
156 236 178 201 273 2 206 206 200 111 112 203 165 260 340 55 137 176 153 164 166 162 163 208 291 322 309 281 262 256 249 245 241 223 219 225 219 209 211 214 216 211 206 205
176 202 152 219 214 179 192 195 197 200 188 208 220 210 219 223 205 185 195 183 182 186 195 190 197 217 250 255 256 263 266 250 246 238 240 242 247 245 237 227 205 196 188 182
194 209 207 224 277 188 198 200 196 204 215 195 215 211 210 216 211 201 192 201 189 196 200 205 198 200 216 233 254 257 258 252 236 231 231 240 264 277 238 198 187 171 174 190
190 247 196 211 220 196 197 207 209 220 230 250 247 239 210 236 173 172 190 189 212 224 208 193 202 203 239 248 250 240 244 243 226 222 230 260 261 166 196 88 131 125 173 181
204 183 177 204 199 191 193 196 194 212 221 219 224 224 180 200 187 188 198 204 212 185 173 198 267 11 15 315 288 260 263 213 188 171 143 131 127 101 50 30 55 46 2 19
252 179 156 170 143 204 227 192 207 206 213 220 231 218 205 190 179 178 181 155 255 305 354 66 44 11 12 355 0 351 16 85 132 117 134 107 114 119 107 85 84 89 86 235
200 169 136 170 191 275 240 198 195 192 224 228 234 215 195 148 111 251 117 97 110 108 84 64 38 63 53 24 5 67 73 93 109 123 172 180 164 153 154 164 197 207 206 190
174 198 170 156 166 202 216 181 196 151 267 221 227 218 200 152 219 207 134 123 97 84 73 64 77 55 43 7 18 67 45 43 29 311 254 210 171 162 179 190 172 141 130 170
148 139 193 169 174 266 233 145 135 153 251 242 212 209 191 204 226 135 123 98 106 103 80 81 71 67 29 7 60 64 60 39 344 359 35 58 124 179 157 146 137 146 116 119
155 149 172 105 125 248 155 149 168 228 57 328 160 166 175 132 121 127 122 122 111 99 74 73 83 59 26 16 63 70 49 345 357 45 67 51 51 134 144 153 131 126 142 142
192 176 171 188 197 304 171 210 145 87 110 328 134 140 137 133 134 141 128 107 89 78 61 50 77 68 36 21 23 46 358 2 20 43 38 43 23 43 73 99 114 103 122 128
304 33 112 98 305 25 48 13 76 74 88 84 87 98 116 125 129 110 105 98 87 70 67 55 69 61 50 26 31 27 2 15 48 52 38 25 38 16 17 38 53 76 118 129
351 343 55 49 3 331 53 5 51 79 68 74 64 68 108 115 105 115 104 95 88 78 63 60 68 67 46 16 19 0 355 7 74 73 53 49 75 75 55 47 46 72 225 158
358 9 16 58 8 305 3 336 349 72 85 55 85 74 58 90 103 104 90 82 82 74 58 63 53 57 34 20 18 3 358 12 48 54 37 32 28 16 50 60 18 25 39 235